Weather History for KVAY - March, 2013

Change the Weather History Date:

Thursday, March 7, 2013

  Actual Average (KWRI) Record (KWRI)
Temperature  
Mean Temperature 40 °F -  
Max Temperature 46 °F 46 °F 72 °F (2009)
Min Temperature 35 °F 27 °F 8 °F (2015)
Degree Days  
Heating Degree Days 24    
Moisture  
Dew Point 28 °F    
Average Humidity 67    
Maximum Humidity 82    
Minimum Humidity 47    
Precipitation  
Precipitation 0.00 in - - ()
Sea Level Pressure  
Sea Level Pressure 30.03 in    
Wind  
Wind Speed 15 mph (North)    
Max Wind Speed 20 mph    
Max Gust Speed 29 mph    
Visibility 10 miles    
Events Rain , Snow    
Averages and records for this station are not official NWS values.
T = Trace of Precipitation, MM = Missing Value Source: NWS Daily Summary

Daily Weather History Graph

Daily Weather History Graph

Search for Another Location

Airport or City:

Trip Planner

Search our weather history database for the weather conditions in past years. The results will help you decide how hot, cold, wet, or windy it might be!

Date:

Astronomy

Mar. 07, 2013 Rise Set
Actual Time 6:23 AM EST 5:58 PM EST
Civil Twilight 5:56 AM EST 6:25 PM EST
Nautical Twilight 5:24 AM EST 6:56 PM EST
Astronomical Twilight 4:53 AM EST 7:27 PM EST
Moon 3:20 AM EST (3/7) 1:43 PM EST (3/7)
Length of Visible Light 12h 28m
Length of Day
11h 34m
Waning Crescent, 20% of the Moon is Illuminated
Mar 7
Waning Crescent
Mar 11
New
Mar 19
First Quarter
Mar 27
Full
Apr 3
Last Quarter

Hourly Weather History & Observations

Time (EST) Temp. Windchill Dew Point Humidity Pressure Visibility Wind Dir Wind Speed Gust Speed Precip Events Conditions
12:19 AM 35.6 °F 25.9 °F 30.2 °F 81% 29.91 in 10.0 mi North 16.1 mph 23.0 mph 0.00 in   Overcast
12:54 AM 36.0 °F 27.1 °F 28.9 °F 76% 29.91 in 10.0 mi North 13.8 mph 25.3 mph 0.00 in   Overcast
1:54 AM 37.0 °F 27.7 °F 27.0 °F 67% 29.92 in 10.0 mi North 16.1 mph 24.2 mph N/A   Overcast
2:54 AM 37.0 °F 28.9 °F 27.0 °F 67% 29.92 in 10.0 mi North 12.7 mph 20.7 mph N/A   Overcast
3:54 AM 37.0 °F 27.7 °F 26.1 °F 65% 29.94 in 10.0 mi North 16.1 mph 24.2 mph N/A   Overcast
4:54 AM 37.0 °F 28.5 °F 26.1 °F 65% 29.96 in 10.0 mi North 13.8 mph - N/A   Overcast
5:54 AM 37.0 °F 28.5 °F 26.1 °F 65% 29.97 in 10.0 mi North 13.8 mph 23.0 mph N/A   Overcast
6:54 AM 36.0 °F 26.7 °F 25.0 °F 64% 29.99 in 10.0 mi North 15.0 mph - N/A   Scattered Clouds
7:54 AM 37.9 °F 28.2 °F 25.0 °F 60% 30.01 in 10.0 mi North 18.4 mph 25.3 mph N/A   Mostly Cloudy
8:54 AM 39.9 °F 30.5 °F 25.0 °F 55% 30.02 in 10.0 mi North 19.6 mph 28.8 mph N/A   Overcast
9:54 AM 39.9 °F 30.5 °F 25.0 °F 55% 30.04 in 10.0 mi North 19.6 mph 26.5 mph N/A   Overcast
10:54 AM 42.1 °F 34.2 °F 26.1 °F 53% 30.04 in 10.0 mi NNE 16.1 mph - N/A   Overcast
11:54 AM 44.1 °F 35.9 °F 26.1 °F 49% 30.03 in 10.0 mi North 19.6 mph 25.3 mph N/A   Overcast
12:54 PM 46.0 °F 39.3 °F 27.0 °F 47% 30.02 in 10.0 mi North 16.1 mph 21.9 mph N/A   Overcast
1:54 PM 46.0 °F 40.6 °F 28.0 °F 50% 30.02 in 10.0 mi North 11.5 mph - N/A   Overcast
2:54 PM 45.0 °F 38.9 °F 28.9 °F 53% 30.03 in 10.0 mi North 12.7 mph 18.4 mph N/A   Overcast
3:54 PM 43.0 °F 34.8 °F 30.0 °F 60% 30.05 in 10.0 mi NNW 18.4 mph 21.9 mph 0.00 in Rain Light Rain
4:54 PM 41.0 °F 33.9 °F 30.9 °F 67% 30.06 in 10.0 mi North 12.7 mph 23.0 mph 0.00 in Rain Light Rain
5:54 PM 39.9 °F 32.5 °F 30.9 °F 70% 30.07 in 10.0 mi North 12.7 mph - 0.00 in   Overcast
6:54 PM 39.0 °F 31.8 °F 32.0 °F 76% 30.09 in 10.0 mi North 11.5 mph 17.3 mph N/A   Overcast
7:54 PM 39.0 °F 31.4 °F 30.0 °F 70% 30.10 in 10.0 mi North 12.7 mph 21.9 mph N/A   Overcast
8:44 PM 37.4 °F 27.2 °F 28.4 °F 70% 30.09 in 10.0 mi North 19.6 mph 26.5 mph N/A   Overcast
8:54 PM 37.9 °F 29.2 °F 28.9 °F 70% 30.09 in 10.0 mi North 15.0 mph 24.2 mph N/A   Overcast
9:14 PM 37.4 °F 28.9 °F 28.4 °F 70% 30.10 in 10.0 mi North 13.8 mph 24.2 mph N/A   Overcast
9:21 PM 37.4 °F 30.3 °F 28.4 °F 70% 30.10 in 10.0 mi North 10.4 mph - N/A   Overcast
9:54 PM 36.0 °F 29.0 °F 30.0 °F 79% 30.10 in 10.0 mi North 9.2 mph - 0.00 in   Overcast
10:54 PM 36.0 °F 29.0 °F 30.0 °F 79% 30.09 in 10.0 mi NNW 9.2 mph - 0.00 in   Overcast
11:42 PM 35.6 °F 27.5 °F 30.2 °F 81% 30.09 in 9.0 mi NNW 11.5 mph 17.3 mph 0.00 in Snow Light Snow
11:51 PM 35.6 °F 26.6 °F 30.2 °F 81% 30.09 in 8.0 mi NNW 13.8 mph 18.4 mph 0.00 in Snow Light Snow
11:54 PM 35.1 °F 27.4 °F 30.0 °F 82% 30.09 in 7.0 mi NNW 10.4 mph 18.4 mph 0.00 in Snow Light Snow